Station 46225 - Torrey Pines Outer, CA (100) Image indicating link to RSS feed of recent meteorological observations for station 46225


Conditions at 46225 as of
(2:26 pm PDT)
2126 GMT on 07/13/2024:
     

Click on the graph icon in the table below to see a time series plot of the last five days of that observation.

5-day plot - Wave Height Wave Height (WVHT): 2.3 ft
5-day plot - Dominant Wave Period Dominant Wave Period (DPD): 15 sec
5-day plot - Average Wave Period Average Period (APD): 7.4 sec
5-day plot - Mean Wave Direction Mean Wave Direction (MWD):SSW ( 198 deg true )
5-day plot - Water Temperature Water Temperature (WTMP): 70.3 °F
Previous observations
TIME
(PDT)
5-day plot - Wind Direction
WDIR
 
5-day plot - Wind Speed
WSPD
kts
5-day plot - Wind Gust
GST
kts
5-day plot - Wave Height
WVHT
ft
5-day plot - Dominant Wave Period
DPD
sec
5-day plot - Average Wave Period
APD
sec
5-day plot - Mean Wave Direction
MWD
 
5-day plot - Atmospheric Pressure
PRES
in
5-day plot - Pressure Tendency
PTDY
in
5-day plot - Air Temperature
ATMP
°F
5-day plot - Water Temperature
WTMP
°F
5-day plot - Dew Point
DEWP
°F
5-day plot - Salinity
SAL
psu
5-day plot - Visibility
VIS
nmi
5-day plot - Tide (above MLLW)
TIDE
ft
2024-07-13 01:56 pm--- 2.3 147.1SSW--- 70.2----
2024-07-13 01:26 pm--- 2.0 147.1SSW--- 70.3----
2024-07-13 12:56 pm--- 2.3 147.4SSW--- 70.5----
2024-07-13 12:26 pm--- 2.3 157.2SSW--- 70.5----
2024-07-13 11:56 am--- 2.3 157.4SSW--- 70.5----
2024-07-13 11:26 am--- 2.3 157.2SSW--- 70.2----
2024-07-13 10:56 am--- 2.3 157.6SSW--- 69.8----
2024-07-13 10:26 am--- 2.3 157.5SSW--- 69.4----
2024-07-13 09:56 am--- 2.3 107.0 SW--- 69.4----
2024-07-13 09:26 am--- 2.3 157.3 SW--- 69.1----
2024-07-13 08:56 am--- 2.3 157.0SSW--- 68.9----
2024-07-13 08:26 am--- 2.3 156.8SSW--- 68.7----
2024-07-13 07:56 am--- 2.3 156.5SSW--- 68.5----
2024-07-13 07:26 am--- 2.3 156.6SSW--- 68.4----
2024-07-13 06:56 am--- 2.3 156.3 SW--- 68.4----
2024-07-13 06:26 am--- 2.3 156.2SSW--- 68.4----
2024-07-13 05:56 am--- 2.3 155.9 SW--- 68.4----
2024-07-13 05:26 am--- 2.3 156.4 SW--- 68.5----
2024-07-13 04:56 am--- 2.3 156.2 SW--- 68.5----
2024-07-13 04:26 am--- 2.3 156.6SSW--- 68.5----
2024-07-13 03:56 am--- 2.3 156.2 SW--- 68.5----
2024-07-13 03:26 am--- 2.3 156.3 SW--- 68.5----
2024-07-13 02:56 am--- 2.3 156.2 SW--- 68.7----
2024-07-13 02:26 am--- 2.3 156.8 SW--- 68.9----
2024-07-13 01:56 am--- 2.6 157.2 SW--- 69.1----
2024-07-13 01:26 am--- 2.3 156.7 SW--- 69.3----
2024-07-13 12:56 am--- 2.3 156.2 SW--- 69.4----
2024-07-13 12:26 am--- 2.3 156.4 SW--- 69.6----
2024-07-12 11:56 pm--- 2.3 156.2 SW--- 69.6----
2024-07-12 11:26 pm--- 2.0 155.9 SW--- 69.8----
2024-07-12 10:56 pm--- 2.6 156.8 SW--- 69.8----
2024-07-12 10:26 pm--- 2.3 156.6SSW--- 69.8----
2024-07-12 09:56 pm--- 2.3 156.9 SW--- 69.8----
2024-07-12 09:26 pm--- 2.3 156.9 SW--- 69.8----
2024-07-12 08:56 pm--- 2.0 157.0 SW--- 69.6----
2024-07-12 08:26 pm--- 2.3 156.7 SW--- 69.6----
2024-07-12 07:56 pm--- 2.3 156.6SSW--- 69.4----
2024-07-12 07:26 pm--- 2.3 157.2 SW--- 69.3----
2024-07-12 06:56 pm--- 2.3 106.3SSW--- 69.4----
2024-07-12 06:26 pm--- 2.3 156.3SSW--- 69.4----
2024-07-12 05:56 pm--- 2.3 106.4 SW--- 69.6----
2024-07-12 05:26 pm--- 2.3 106.5WSW--- 70.0----
2024-07-12 04:56 pm--- 2.3 156.7SSW--- 70.0----
2024-07-12 04:26 pm--- 2.3 156.7SSW--- 69.4----
2024-07-12 03:56 pm--- 2.3 176.8SSW--- 70.2----
2024-07-12 03:26 pm--- 2.0 176.3SSW--- 70.3----
2024-07-12 02:56 pm--- 2.0 157.5SSW--- 70.3----
2024-07-12 02:26 pm--- 2.0 157.9 SW--- 70.2----
2024-07-12 01:56 pm--- 2.0 157.4SSW--- 70.0----

Detailed Wave Summary
for 46225 as of (2:26 pm PDT)
2126 GMT on 07/13/2024:

These wave data are displayed in rounded times.

     

Click on the graph icon in the table below to see a time series plot of the last five days of that observation.

5-day plot - Significant Wave Height Significant Wave Height (WVHT): 2.3 ft
5-day plot - Swell Height Swell Height (SwH): 1.6 ft
5-day plot - Swell Period Swell Period (SwP): 15.4 sec
5-day plot - Swell Direction Swell Direction (SwD):SSW
5-day plot - Wind Wave Height Wind Wave Height (WWH): 1.6 ft
5-day plot - Wind Wave Period Wind Wave Period (WWP): 9.1 sec
5-day plot - Wind Wave Direction Wind Wave Direction (WWD): SW
5-day plot - Average Wave Period Average Wave Period (APD): 7.4 sec
Previous observations
TIME
(PDT)
5-day plot - Wave Height
WVHT
ft
5-day plot - Swell Height
SwH
ft
5-day plot - Swell Period
SwP
sec
5-day plot - Swell Direction
SwD
 
5-day plot - Wind Wave Height
WWH
ft
5-day plot - Wind Wave Period
WWP
sec
5-day plot - Wind Wave Direction
WWD
 
5-day plot - Wave Steepness
STEEPNESS
 
5-day plot - Average Wave Period
APD
sec
2024-07-13 01:56 pm 2.3 1.3 14.3SSW 1.6 8.3 WSW N/A 7.1
2024-07-13 01:26 pm 2.0 1.3 14.3SSW 1.6 9.9 WSW N/A 7.1
2024-07-13 12:56 pm 2.3 1.3 14.3SSW 1.6 9.1 WSW N/A 7.4
2024-07-13 12:26 pm 2.3 1.3 15.4SSW 1.6 9.9 WSW N/A 7.2
2024-07-13 11:56 am 2.3 1.3 15.4SSW 2.0 9.1 WSW N/A 7.4
2024-07-13 11:26 am 2.3 1.3 15.4SSW 2.0 9.9 WSW N/A 7.2
2024-07-13 10:56 am 2.3 1.6 15.4SSW 2.0 9.9 WSW N/A 7.6
2024-07-13 10:26 am 2.3 1.6 15.4SSW 1.6 9.1 WSW N/A 7.5
2024-07-13 09:56 am 2.3 1.3 10.5 SW 2.0 9.9 SW N/A 7.0
2024-07-13 09:26 am 2.3 1.6 15.4 SW 2.0 9.9 WSW N/A 7.3
2024-07-13 08:56 am 2.3 1.3 15.4SSW 1.6 9.9 W N/A 7.0
2024-07-13 08:26 am 2.3 1.3 15.4SSW 1.6 9.9 WSW N/A 6.8
2024-07-13 07:56 am 2.3 1.3 15.4SSW 2.0 9.1 W N/A 6.5
2024-07-13 07:26 am 2.3 1.6 15.4SSW 1.6 9.1 WSW N/A 6.6
2024-07-13 06:56 am 2.3 1.3 15.4 SW 2.0 9.1 WSW N/A 6.3
2024-07-13 06:26 am 2.3 1.6 15.4SSW 2.0 9.9 SW N/A 6.2
2024-07-13 05:56 am 2.3 1.3 15.4 SW 2.0 9.1 SW N/A 5.9
2024-07-13 05:26 am 2.3 1.6 15.4 SW 2.0 9.9 WSW N/A 6.4
2024-07-13 04:56 am 2.3 1.3 15.4 SW 2.0 9.9 WSW N/A 6.2
2024-07-13 04:26 am 2.3 1.6 15.4SSW 2.0 9.9 WSW N/A 6.6
2024-07-13 03:56 am 2.3 1.6 15.4 SW 2.0 9.9 WSW N/A 6.2
2024-07-13 03:26 am 2.3 1.3 15.4 SW 2.0 9.9 WSW N/A 6.3
2024-07-13 02:56 am 2.3 1.3 15.4 SW 1.6 9.9 SW N/A 6.2
2024-07-13 02:26 am 2.3 1.6 15.4 SW 2.0 9.9 SW N/A 6.8
2024-07-13 01:56 am 2.6 1.6 15.4 SW 1.6 9.9 SW N/A 7.2
2024-07-13 01:26 am 2.3 1.6 15.4 SW 2.0 9.1 WSW N/A 6.7
2024-07-13 12:56 am 2.3 1.3 15.4 SW 2.0 9.1 WSW N/A 6.2
2024-07-13 12:26 am 2.3 1.3 15.4 SW 1.6 9.1 WSW N/A 6.4
2024-07-12 11:56 pm 2.3 1.3 15.4 SW 2.0 9.9 SW N/A 6.2
2024-07-12 11:26 pm 2.0 1.3 15.4 SW 1.6 9.1 WSW N/A 5.9
2024-07-12 10:56 pm 2.6 1.6 15.4 SW 2.0 9.1 WSW N/A 6.8
2024-07-12 10:26 pm 2.3 1.3 15.4SSW 1.6 9.9 SW N/A 6.6
2024-07-12 09:56 pm 2.3 1.3 15.4 SW 1.6 9.9 SW N/A 6.9
2024-07-12 09:26 pm 2.3 1.3 15.4 SW 1.6 9.1 WSW N/A 6.9
2024-07-12 08:56 pm 2.0 1.3 15.4 SW 1.6 9.9 SSW N/A 7.0
2024-07-12 08:26 pm 2.3 1.3 15.4 SW 1.6 9.1 WSW N/A 6.7
2024-07-12 07:56 pm 2.3 1.3 15.4SSW 1.6 9.1 SW N/A 6.6
2024-07-12 07:26 pm 2.3 1.6 15.4 SW 2.0 9.9 SW N/A 7.2
2024-07-12 06:56 pm 2.3 1.0 15.4 SW 2.0 9.9 SSW N/A 6.3
2024-07-12 06:26 pm 2.3 1.3 15.4SSW 2.0 9.1 W N/A 6.3
2024-07-12 05:56 pm 2.3 1.3 15.4SSW 2.0 9.9 SW N/A 6.4
2024-07-12 05:26 pm 2.3 1.3 15.4SSW 2.0 9.9 WSW N/A 6.5
2024-07-12 04:56 pm 2.3 1.6 15.4SSW 1.6 9.9 SW N/A 6.7
2024-07-12 04:26 pm 2.3 1.6 15.4SSW 1.6 9.9 SW N/A 6.7
2024-07-12 03:56 pm 2.3 1.3 16.7SSW 1.6 9.9 SW N/A 6.8
2024-07-12 03:26 pm 2.0 1.3 16.7SSW 1.6 9.9 SW N/A 6.3
2024-07-12 02:56 pm 2.0 1.3 15.4SSW 1.3 9.9 SSW N/A 7.5
2024-07-12 02:26 pm 2.0 1.3 15.4 SW 1.3 9.9 SSW N/A 7.9
2024-07-12 01:56 pm 2.0 1.3 15.4SSW 1.6 9.9 SSW N/A 7.4

Plot of wave energy versus frequency (and period)